Kenai, AK

6:49 AM AKDT on March 27, 2017 (GMT -0800)
Kenai Municipal

Weather History for PAEN - May, 2013

Change the Weather History Date:

Tuesday, May 21, 2013

  Actual Average Record
Temperature  
Mean Temperature 40 °F -  
Max Temperature 48 °F 53 °F 75 °F (2002)
Min Temperature 33 °F 36 °F 26 °F (1985)
Degree Days  
Heating Degree Days 24    
Moisture  
Dew Point 32 °F    
Average Humidity 72    
Maximum Humidity 92    
Minimum Humidity 56    
Precipitation  
Precipitation 0.00 in - - ()
Sea Level Pressure  
Sea Level Pressure 30.44 in    
Wind  
Wind Speed 2 mph (NW)    
Max Wind Speed 9 mph    
Max Gust Speed -    
Visibility 10 miles    
Events      
Averages and records for this station are not official NWS values.
T = Trace of Precipitation, MM = Missing Value Source: NWS Daily Summary

Daily Weather History Graph

Daily Weather History Graph

Search for Another Location

Airport or City:

Trip Planner

Search our weather history database for the weather conditions in past years. The results will help you decide how hot, cold, wet, or windy it might be!

Date:

Astronomy

May. 21, 2013 Rise Set
Actual Time 5:08 AM AKDT 10:56 PM AKDT
Civil Twilight 3:54 AM AKDT 12:11 AM AKDT
Nautical Twilight Sun does not rise Sun does not rise
Astronomical Twilight Sun does not rise Sun does not rise
Moon 6:24 PM AKDT (5/21) 3:50 AM AKDT (5/21)
Length of Visible Light 20h 17m
Length of Day
17h 48m
Waxing Gibbous, 85% of the Moon is Illuminated
May 21
Waxing Gibbous
May 24
Full
May 31
Last Quarter
Jun 8
New
Jun 16
First Quarter

Hourly Weather History & Observations

Time (AKDT) Temp. Windchill Dew Point Humidity Pressure Visibility Wind Dir Wind Speed Gust Speed Precip Events Conditions
12:53 AM 34.0 °F - 32.0 °F 92% 30.57 in 10.0 mi Calm Calm - N/A   Clear
1:53 AM 33.1 °F - 30.9 °F 92% 30.56 in 10.0 mi Calm Calm - N/A   Mostly Cloudy
2:53 AM 34.0 °F - 30.9 °F 89% 30.56 in 10.0 mi Calm Calm - N/A   Overcast
3:53 AM 34.0 °F 29.8 °F 30.9 °F 89% 30.55 in 10.0 mi ESE 4.6 mph - N/A   Overcast
4:53 AM 35.1 °F - 30.9 °F 85% 30.54 in 10.0 mi Calm Calm - N/A   Overcast
5:53 AM 35.1 °F - 32.0 °F 89% 30.53 in 10.0 mi Calm Calm - N/A   Overcast
6:53 AM 35.1 °F - 32.0 °F 89% 30.52 in 10.0 mi Calm Calm - N/A   Overcast
7:53 AM 36.0 °F 32.1 °F 32.0 °F 86% 30.51 in 10.0 mi NE 4.6 mph - N/A   Overcast
8:53 AM 39.0 °F - 33.1 °F 79% 30.50 in 10.0 mi Calm Calm - N/A   Overcast
9:53 AM 41.0 °F 38.0 °F 32.0 °F 70% 30.49 in 10.0 mi ENE 4.6 mph - N/A   Overcast
10:53 AM 43.0 °F 41.3 °F 33.1 °F 68% 30.48 in 10.0 mi NNW 3.5 mph - N/A   Overcast
11:53 AM 45.0 °F 42.6 °F 33.1 °F 63% 30.46 in 10.0 mi Variable 4.6 mph - N/A   Overcast
12:53 PM 46.9 °F - 32.0 °F 56% 30.45 in 10.0 mi Calm Calm - N/A   Mostly Cloudy
1:53 PM 48.0 °F - 34.0 °F 58% 30.43 in 10.0 mi NW 6.9 mph - N/A   Mostly Cloudy
2:53 PM 46.9 °F - 32.0 °F 56% 30.41 in 10.0 mi NW 4.6 mph - N/A   Overcast
3:53 PM 46.9 °F - 32.0 °F 56% 30.40 in 10.0 mi West 6.9 mph - N/A   Overcast
4:53 PM 48.0 °F - 33.1 °F 56% 30.38 in 10.0 mi NW 6.9 mph - N/A   Overcast
5:53 PM 46.9 °F - 32.0 °F 56% 30.36 in 10.0 mi West 8.1 mph - N/A   Scattered Clouds
6:53 PM 46.9 °F - 32.0 °F 56% 30.34 in 10.0 mi West 9.2 mph - N/A   Partly Cloudy
7:53 PM 45.0 °F 40.6 °F 33.1 °F 63% 30.33 in 10.0 mi West 8.1 mph - N/A   Overcast
8:53 PM 43.0 °F 39.5 °F 33.1 °F 68% 30.32 in 10.0 mi WNW 5.8 mph - N/A   Overcast
9:53 PM 43.0 °F 41.3 °F 34.0 °F 71% 30.30 in 10.0 mi WNW 3.5 mph - N/A   Overcast
10:53 PM 42.1 °F - 34.0 °F 73% 30.29 in 10.0 mi Calm Calm - N/A   Overcast
11:53 PM 42.1 °F - 35.1 °F 76% 30.28 in 10.0 mi Calm Calm - N/A   Overcast